Helicity
30 16 -7 -13 35 27 46 38 64 72 113 94 153 182 119 48 66 105 66 31 78 74 45 42 24 24 52 38 40 32 16 -1 22 53 81 76 69 75 84 93 94 78 74 80
40 26 -8 2 16 23 48 44 52 79 53 76 68 53 126 147 87 40 58 103 86 105 126 112 74 49 56 66 56 38 10 6 32 62 59 48 52 72 84 87 82 82 81 92
24 -1 -7 18 50 29 33 19 34 42 27 50 90 105 74 37 37 64 79 105 162 178 160 139 121 95 107 91 62 41 3 5 42 62 57 37 42 79 85 64 95 71 82 78
32 11 35 52 19 31 64 50 47 53 35 47 51 139 166 165 130 130 126 140 136 107 123 132 129 143 132 96 68 5 7 2 32 56 32 34 50 57 99 84 99 96 85 69
42 38 34 18 55 53 66 70 75 71 61 42 105 154 153 166 173 160 147 130 116 99 109 124 116 105 92 84 54 -6 16 11 25 29 25 52 87 93 94 106 109 114 103 82
50 62 88 60 46 33 76 107 102 112 81 55 82 113 107 122 126 123 118 96 74 80 73 68 70 75 89 72 30 1 14 15 15 17 34 63 98 108 126 128 105 106 86 80
70 81 70 67 72 72 141 112 53 54 78 95 107 104 146 92 88 85 81 77 53 52 47 45 45 61 49 30 25 9 3 -4 7 27 58 84 73 74 116 100 101 95 80 92
87 108 117 105 109 142 114 78 117 126 116 163 150 125 104 84 73 56 30 24 28 32 33 31 27 24 24 32 26 6 -17 -15 -4 24 40 57 59 51 79 69 71 91 89 97
98 99 115 167 167 83 91 86 68 108 97 85 94 119 91 48 34 34 35 33 41 36 26 15 7 0 -7 4 7 -7 -10 -32 -14 -27 -41 13 45 37 59 65 79 93 93 98
155 143 157 186 182 130 134 109 66 64 107 119 90 63 56 54 49 46 37 31 27 31 25 17 4 -8 -17 -9 5 6 -6 -23 -26 -33 -35 55 61 74 80 54 64 97 111 111
207 198 228 166 106 109 106 83 109 99 62 48 54 43 46 45 39 25 20 20 19 15 15 9 -7 -28 -10 -15 -7 -20 19 8 -4 45 70 95 107 115 128 113 87 88 96 108
114 80 107 63 45 70 89 86 60 51 45 43 41 34 35 33 31 24 18 17 18 19 9 8 27 20 17 27 21 23 72 90 92 97 114 120 118 134 122 116 110 77 68 85
134 87 129 55 37 54 90 33 43 55 51 39 19 32 39 42 42 46 34 26 12 9 14 23 20 32 41 38 51 47 63 80 96 102 109 116 121 120 129 158 126 122 109 86
218 208 98 37 25 27 55 61 67 56 43 33 33 28 48 70 54 37 30 44 52 45 23 39 37 35 44 42 45 46 67 87 105 113 122 129 132 136 141 147 160 161 158 149
117 29 24 61 31 32 48 68 78 74 67 57 50 55 67 73 58 51 62 76 83 60 57 46 58 68 84 76 81 79 88 112 120 124 121 119 124 123 132 137 145 152 147 135
91 90 59 33 25 42 60 57 80 93 103 94 81 72 78 89 89 85 79 77 85 84 75 84 93 114 92 92 105 111 107 102 109 113 126 126 123 117 124 123 126 141 146 141
114 -16 4 15 43 43 44 50 64 78 92 100 102 86 84 83 86 89 99 97 103 102 90 94 106 92 97 93 94 117 122 120 118 126 134 128 139 130 135 134 134 137 140 126
46 6 26 57 38 47 47 41 42 49 60 69 95 98 88 86 96 106 112 116 115 102 98 105 116 107 105 110 105 118 125 122 114 115 107 117 120 114 105 122 120 118 129 131
-7 -3 3 22 35 45 43 33 32 35 40 54 64 58 60 71 88 100 105 102 94 97 110 109 99 103 103 108 114 125 126 133 119 121 121 103 94 105 108 120 118 119 122 126
-55 -19 -10 -1 27 52 29 18 29 36 32 48 50 45 49 68 80 84 84 79 112 135 123 110 118 117 118 117 109 120 116 116 115 119 116 116 120 112 109 99 94 115 126 125
-38 -17 -4 3 8 13 10 18 27 26 28 42 56 60 68 83 94 96 99 110 109 105 94 96 97 109 117 113 105 102 99 98 108 117 121 116 113 119 122 112 122 124 131 138
-31 -12 -3 10 9 -4 -5 7 19 17 40 54 61 74 74 66 64 64 69 90 93 88 79 82 84 83 97 90 103 102 100 103 108 118 122 126 127 133 136 134 146 153 143 142
-11 -7 7 10 6 -3 -13 -2 6 24 39 56 65 58 52 48 53 58 63 67 71 70 65 66 63 63 70 90 100 105 102 102 107 118 130 139 148 156 157 157 163 168 168 152
-28 -19 -2 -10 0 7 -4 -20 -18 4 23 16 22 26 31 27 17 13 37 63 65 68 65 62 61 67 82 92 93 97 101 108 117 124 133 134 161 172 179 180 176 168 181 169
-35 -32 -13 -5 -6 -16 -15 -26 -46 -34 -35 -25 -14 -10 1 5 15 23 27 42 54 56 59 64 65 72 86 93 96 96 98 110 123 135 142 153 154 170 176 176 182 190 182 179
-31 -39 -33 -19 -35 -18 -14 -27 -44 -66 -52 -55 -47 -33 -26 -21 -1 23 24 34 45 53 57 60 69 81 92 96 99 98 104 116 128 139 153 161 164 173 171 167 173 181 195 187
-58 -46 -47 -80 -94 -46 -24 -29 -34 -58 -55 -45 -43 -46 -28 -11 2 16 23 28 36 47 58 70 77 88 102 106 105 107 120 134 144 156 167 178 184 195 198 192 197 204 195 196
Wind_Speed
43 44 47 44 44 41 33 29 34 37 38 35 32 29 29 28 31 34 39 44 51 49 47 46 43 47 49 50 56 66 72 74 71 65 63 62 64 66 70 75 70 65 60 58
43 45 51 51 51 47 48 49 46 39 36 32 31 31 33 39 39 38 44 50 52 49 52 55 55 56 50 50 60 67 71 69 69 63 65 67 66 66 70 73 71 64 61 56
35 31 31 40 38 40 43 41 37 34 29 29 31 33 36 37 39 44 46 47 49 51 56 59 62 59 51 53 60 67 69 69 68 62 64 67 69 65 68 76 70 64 60 57
33 31 35 30 27 33 40 39 38 36 30 28 29 37 46 47 43 45 46 47 50 54 58 61 63 60 51 54 60 66 72 70 67 64 62 65 71 76 66 73 67 65 60 56
31 29 26 24 25 24 27 35 35 31 28 28 31 38 48 49 47 47 49 52 55 56 60 62 64 61 57 54 60 65 70 69 66 61 60 63 66 67 68 66 61 61 55 51
27 28 28 24 26 21 29 30 34 35 30 27 32 38 41 45 47 49 51 53 55 58 58 63 66 61 56 56 58 62 69 66 63 61 57 62 56 49 51 51 54 57 52 48
22 23 25 22 27 29 30 35 33 32 34 33 39 40 37 41 47 49 52 55 53 55 60 64 64 61 60 59 60 57 66 67 65 56 60 59 43 41 43 46 46 51 51 47
25 26 30 28 31 32 30 33 36 38 38 40 39 41 41 45 48 48 50 53 54 56 59 62 64 63 61 60 53 58 60 67 71 71 68 64 49 44 43 48 45 46 46 45
24 29 32 39 35 32 32 34 37 40 38 38 38 43 43 45 48 50 52 53 54 56 58 61 63 63 61 59 53 55 54 62 70 70 68 73 53 52 50 46 47 46 43 44
29 33 35 37 39 39 40 40 39 41 41 42 43 43 44 47 50 53 54 55 54 55 59 62 63 62 60 56 53 58 52 55 58 40 58 58 50 52 52 47 48 46 43 39
30 29 38 39 38 39 41 42 44 46 46 47 46 46 46 47 50 52 54 56 54 53 56 60 63 46 35 45 59 52 22 9 28 16 27 39 45 48 52 48 43 43 45 40
21 23 32 31 36 39 44 45 46 48 49 50 50 49 49 49 50 53 56 55 55 51 41 20 24 5 13 20 15 6 22 26 25 30 37 48 55 56 57 55 51 50 43 44
29 31 37 39 41 42 47 48 50 51 51 52 51 52 51 51 49 47 48 43 31 30 27 24 19 11 8 5 6 12 20 20 31 43 39 50 51 58 61 55 59 59 47 43
40 43 42 41 43 48 54 55 56 57 56 56 56 55 52 53 50 44 33 30 33 32 23 24 18 14 7 7 10 16 23 28 31 30 34 38 42 48 53 55 57 57 52 55
40 40 45 50 54 57 59 61 61 60 58 57 54 53 51 50 46 41 36 34 35 32 34 33 26 23 24 29 32 36 39 40 42 44 45 46 46 51 53 54 57 59 56 57
44 48 52 56 61 63 62 59 60 58 57 56 55 52 51 52 49 44 40 39 42 41 38 40 38 33 33 34 37 39 39 37 39 43 43 44 44 45 45 49 53 55 56 55
48 48 56 66 69 65 61 58 57 57 57 58 57 54 54 52 50 47 46 45 45 45 42 42 42 39 40 40 43 45 45 45 45 46 47 48 49 51 52 55 56 55 55 54
50 59 68 75 74 70 65 60 57 57 57 57 59 57 56 55 53 51 50 51 51 50 46 46 45 47 49 51 53 54 54 57 58 60 60 59 59 59 62 60 60 57 56 56
58 68 75 76 74 70 67 64 60 59 58 57 58 56 55 54 53 52 52 54 55 56 52 50 50 49 50 51 53 56 58 61 64 66 65 67 70 68 68 66 66 65 62 61
66 76 78 77 75 71 68 63 62 60 59 59 58 56 55 54 55 57 56 59 57 56 51 50 48 50 53 53 55 56 60 62 64 64 66 66 66 69 70 70 72 67 63 63
78 82 81 78 75 70 65 63 61 60 59 59 61 62 62 58 55 53 56 57 49 49 49 50 50 50 49 49 52 56 59 61 63 65 66 68 67 65 67 67 67 65 65 63
85 86 84 81 76 71 66 63 62 61 62 63 64 63 62 61 58 54 47 51 50 49 47 44 41 40 43 45 50 54 56 59 62 63 66 66 67 66 65 66 61 58 61 64
90 89 86 83 78 73 68 65 64 66 67 67 65 62 58 56 53 53 52 47 48 46 42 38 37 43 46 49 51 52 55 58 60 61 62 63 65 64 62 63 60 58 60 67
89 88 86 83 78 75 72 68 66 67 66 63 60 57 56 53 47 41 44 46 43 41 39 39 39 42 44 47 49 51 52 54 55 58 59 61 61 62 61 59 58 58 60 63
84 83 84 83 78 75 72 68 66 68 65 62 59 55 50 48 43 43 42 39 37 36 36 36 37 39 42 44 46 49 51 52 54 56 58 61 63 64 62 61 59 58 63 65
81 83 81 79 77 74 68 65 64 63 59 58 55 51 47 42 40 39 36 34 32 31 31 32 34 35 38 40 43 46 48 50 53 54 56 60 62 64 64 64 62 62 64 67
76 76 74 74 72 69 65 61 59 60 56 52 48 45 41 36 33 30 28 27 26 26 27 28 29 32 36 38 41 43 44 47 49 52 53 58 59 62 64 63 64 63 66 67
Wind_Direction
53 47 44 49 50 57 73 83 71 81 64 55 31 12 8 8 5 4 355 352 348 352 356 357 358 355 355 355 354 352 351 354 358 0 2 2 3 4 4 3 2 2 3 1
45 50 48 48 53 65 65 67 68 66 54 57 42 39 15 357 357 358 352 345 348 354 353 350 348 348 353 356 352 352 352 357 358 3 3 4 6 7 8 8 7 9 7 5
46 74 68 50 69 72 69 65 60 54 60 51 30 16 5 0 354 349 352 354 354 352 350 348 346 348 354 355 353 353 355 356 359 4 4 7 8 11 12 9 10 11 11 10
48 62 41 76 85 74 56 46 44 45 52 42 28 9 355 354 357 356 358 356 353 350 348 346 345 348 353 353 352 352 350 353 0 4 5 10 13 12 15 12 15 15 16 16
50 51 64 75 71 68 46 28 27 30 33 30 24 14 3 1 2 0 357 355 351 349 346 345 344 345 348 350 349 351 349 354 2 6 4 8 11 15 17 17 21 20 21 25
56 42 36 54 43 47 28 10 16 18 21 17 10 357 358 1 0 359 358 356 355 354 355 354 350 352 354 353 354 354 351 357 3 7 10 8 15 19 22 24 26 26 29 33
52 42 38 41 32 30 9 7 15 15 16 16 4 5 10 6 3 1 0 360 4 3 0 359 358 357 356 355 354 2 354 356 2 16 11 13 22 23 25 26 31 32 35 39
41 30 19 27 20 7 18 18 20 21 18 20 21 16 13 11 7 10 12 10 8 7 6 7 3 1 358 357 6 354 343 354 2 7 4 16 31 30 33 34 38 39 42 45
38 27 25 25 30 35 32 27 29 31 30 25 22 17 22 27 23 19 18 18 16 13 11 7 2 357 350 342 335 340 333 346 1 2 357 18 41 40 42 46 46 46 49 49
29 23 27 34 34 37 40 43 38 30 29 30 34 42 39 33 29 25 21 20 21 21 18 12 6 359 350 350 348 0 335 339 342 327 340 38 49 48 48 53 52 52 52 54
27 43 33 35 43 50 46 42 37 38 49 51 47 46 49 46 40 34 30 27 28 28 32 28 17 341 328 343 6 356 83 57 330 68 64 59 56 53 53 57 57 55 54 57
40 60 36 47 60 57 50 46 53 58 57 58 56 56 56 52 47 39 34 37 44 51 70 101 86 28 323 323 327 69 85 79 75 74 66 61 56 55 57 57 58 57 58 58
65 63 64 69 68 61 56 64 73 67 63 62 62 59 55 59 67 70 69 79 97 106 107 104 104 89 62 4 62 83 86 76 76 68 67 61 60 56 56 58 59 58 59 59
80 74 64 72 67 73 80 83 75 75 72 70 68 71 81 80 83 89 97 105 105 109 113 109 110 101 74 75 82 85 85 81 78 74 70 68 66 64 62 60 58 58 59 59
81 70 81 85 87 91 102 99 95 90 90 90 92 92 94 97 100 103 102 107 109 109 104 102 102 99 96 94 92 88 83 81 78 75 72 70 69 67 65 64 61 59 58 58
85 85 90 94 101 119 122 117 107 102 100 100 101 102 103 104 105 106 106 105 105 103 102 101 98 97 95 93 93 90 86 81 79 77 74 72 69 68 65 63 61 59 58 55
91 93 101 111 131 134 129 125 119 112 108 105 106 107 107 109 108 107 106 105 106 105 103 102 99 96 95 92 90 87 83 80 77 76 72 70 68 66 64 61 59 58 57 56
106 113 121 132 134 132 129 127 123 118 113 111 110 109 109 109 108 108 107 107 106 104 102 100 98 95 91 89 87 84 80 76 72 69 66 64 61 60 56 55 55 54 54 53
114 119 130 135 137 135 130 127 124 119 117 116 116 115 114 113 112 111 110 108 105 103 100 100 98 96 92 89 86 82 78 72 68 64 62 58 54 53 51 50 49 48 48 48
123 131 134 134 139 137 134 132 124 120 118 117 119 120 119 118 116 113 111 107 106 106 105 104 100 95 91 87 83 79 73 70 65 62 59 57 55 51 48 45 43 44 44 43
136 140 140 138 139 141 139 133 128 125 124 124 122 123 123 122 121 120 114 110 114 111 107 102 97 93 89 84 78 73 69 65 61 57 54 51 49 48 46 43 42 41 39 38
145 147 147 146 144 143 142 135 132 133 135 137 133 130 126 123 121 119 122 115 114 111 107 102 96 91 84 79 72 66 62 58 54 51 48 47 44 43 42 40 40 39 37 34
153 155 152 151 150 150 148 142 140 141 141 141 140 137 133 130 127 119 114 118 112 108 105 100 92 81 75 69 64 60 56 52 48 46 44 42 40 38 37 36 35 34 32 28
153 154 154 157 154 153 152 147 145 149 149 149 149 144 134 129 132 136 125 115 110 104 98 90 82 75 69 63 58 54 50 47 44 41 40 37 35 34 32 31 31 30 28 26
150 151 151 154 153 155 150 146 147 153 147 144 146 146 143 137 130 126 120 113 106 98 89 81 73 66 60 55 50 47 44 41 39 37 35 33 31 29 27 27 26 25 23 21
152 154 155 156 158 155 150 147 147 146 142 145 148 146 143 138 120 114 112 105 97 89 79 69 62 56 50 45 42 39 36 34 33 31 30 27 26 25 24 23 22 20 18 16
155 154 155 157 160 157 154 151 149 151 149 146 143 142 136 125 118 114 105 94 83 73 64 57 49 43 38 35 32 30 28 26 25 24 23 20 20 19 18 17 15 14 13 12